Weather History for Massena, NY

Change the Weather History Date:

Saturday, February 23, 2013

  Actual Average Record
Temperature  
Mean Temperature 31 °F 20 °F  
Max Temperature 34 °F 30 °F 59 °F (1984)
Min Temperature 28 °F 9 °F -37 °F (1972)
Degree Days  
Heating Degree Days 34 45  
Month to date heating degree days 1087 1103  
Since 1 July heating degree days 5295 5766  
Moisture  
Dew Point 29 °F    
Average Humidity 88    
Maximum Humidity 100    
Minimum Humidity 75    
Precipitation  
Precipitation 0.06 in 0.07 in 1.41 in (1971)
Month to date precipitation 0.42 1.42  
Year to date precipitation 1.86 3.60  
Sea Level Pressure  
Sea Level Pressure 29.98 in    
Wind  
Wind Speed 4 mph (ENE)    
Max Wind Speed 10 mph    
Max Gust Speed 14 mph    
Visibility 3 miles    
Events Fog , Rain , Snow    
T = Trace of Precipitation, MM = Missing Value Source: NWS Daily Summary

Daily Weather History Graph

Daily Weather History Graph

Search for Another Location

Airport:

Trip Planner

Search our weather history database for the weather conditions in past years. The results will help you decide how hot, cold, wet, or windy it might be!

Date:

Astronomy

Feb. 23, 2013 Rise Set
Actual Time 6:47 AM EST 5:39 PM EST
Civil Twilight 6:17 AM EST 6:08 PM EST
Nautical Twilight 5:43 AM EST 6:42 PM EST
Astronomical Twilight 5:09 AM EST 7:16 PM EST
Moon 3:44 PM EST (2/23) 5:11 AM EST (2/23)
Length of Visible Light 11h 51m
Length of Day
10h 52m
Waxing Gibbous, 95% of the Moon is Illuminated
Feb 23
Waxing Gibbous
Feb 25
Full
Mar 4
Last Quarter
Mar 11
New
Mar 19
First Quarter

Hourly Weather History & Observations

Time (EST) Temp. Windchill Dew Point Humidity Pressure Visibility Wind Dir Wind Speed Gust Speed Precip Events Conditions
12:53 AM 28.0 °F 20.0 °F 21.9 °F 78% 30.16 in 10.0 mi ENE 8.1 mph - N/A   Overcast
1:53 AM 28.0 °F 20.0 °F 21.9 °F 78% 30.14 in 9.0 mi ENE 8.1 mph - N/A   Overcast
2:53 AM 28.0 °F 21.7 °F 21.9 °F 78% 30.11 in 8.0 mi ENE 5.8 mph - N/A   Overcast
3:53 AM 28.0 °F 20.8 °F 21.9 °F 78% 30.10 in 8.0 mi ENE 6.9 mph - N/A   Overcast
4:53 AM 28.0 °F 20.0 °F 21.9 °F 78% 30.09 in 9.0 mi ENE 8.1 mph - N/A   Overcast
5:53 AM 28.0 °F 20.0 °F 23.0 °F 81% 30.07 in 10.0 mi ENE 8.1 mph - N/A   Overcast
6:53 AM 28.0 °F 21.7 °F 23.0 °F 81% 30.07 in 8.0 mi East 5.8 mph - N/A   Overcast
7:53 AM 28.0 °F 24.2 °F 24.1 °F 85% 30.07 in 2.5 mi East 3.5 mph - 0.00 in Snow Light Snow
8:06 AM 28.4 °F 23.3 °F 24.8 °F 86% 30.05 in 4.0 mi ENE 4.6 mph - 0.00 in Snow Light Snow
8:25 AM 28.4 °F 23.3 °F 24.8 °F 86% 30.04 in 2.5 mi ENE 4.6 mph - 0.00 in Snow Light Snow
8:35 AM 28.4 °F 23.3 °F 24.8 °F 86% 30.04 in 4.0 mi ENE 4.6 mph - 0.00 in Snow Light Snow
8:42 AM 28.4 °F 22.2 °F 24.8 °F 86% 30.04 in 1.8 mi ENE 5.8 mph - 0.00 in Snow Light Snow
8:51 AM 28.4 °F 24.6 °F 26.6 °F 93% 30.04 in 1.0 mi East 3.5 mph - 0.00 in Snow Light Snow
8:53 AM 28.9 °F 25.2 °F 26.1 °F 89% 30.06 in 1.2 mi East 3.5 mph - 0.00 in Snow Light Snow
8:58 AM 28.4 °F 24.6 °F 26.6 °F 93% 30.04 in 1.5 mi East 3.5 mph - 0.00 in Snow Light Snow
9:05 AM 28.4 °F 22.2 °F 26.6 °F 93% 30.04 in 1.2 mi East 5.8 mph - 0.00 in Snow Light Snow
9:13 AM 28.4 °F 22.2 °F 26.6 °F 93% 30.04 in 0.8 mi East 5.8 mph - 0.00 in Snow Light Snow
9:24 AM 28.4 °F 24.6 °F 26.6 °F 93% 30.04 in 0.5 mi East 3.5 mph - 0.01 in Fog , Snow Snow
9:50 AM 30.2 °F 22.6 °F 26.6 °F 86% 30.03 in 1.2 mi ENE 8.1 mph - 0.01 in Snow Light Snow
9:53 AM 30.0 °F 23.2 °F 27.0 °F 88% 30.04 in 1.2 mi ENE 6.9 mph - 0.01 in Snow Light Snow
10:14 AM 30.2 °F 22.6 °F 28.4 °F 93% 30.02 in 1.8 mi ENE 8.1 mph - 0.01 in Snow Light Snow
10:26 AM 30.2 °F 23.4 °F 28.4 °F 93% 30.02 in 1.0 mi ENE 6.9 mph - 0.01 in Snow Light Snow
10:51 AM 30.2 °F 21.9 °F 28.4 °F 93% 30.01 in 1.8 mi ENE 9.2 mph - 0.01 in Snow Light Snow
10:53 AM 30.9 °F 23.5 °F 28.0 °F 89% 30.02 in 1.8 mi ENE 8.1 mph - 0.01 in Snow Light Snow
11:03 AM 30.2 °F 22.6 °F 28.4 °F 93% 30.00 in 2.0 mi ENE 8.1 mph - 0.00 in Snow Light Snow
11:08 AM 30.2 °F 23.4 °F 28.4 °F 93% 30.00 in 1.2 mi ENE 6.9 mph - 0.00 in Snow Light Snow
11:21 AM 30.2 °F 23.4 °F 28.4 °F 93% 30.00 in 2.0 mi ENE 6.9 mph - 0.00 in Snow Light Snow
11:41 AM 32.0 °F 24.2 °F 28.4 °F 87% 29.99 in 1.5 mi ENE 9.2 mph - 0.00 in Snow Light Snow
11:51 AM 32.0 °F 24.8 °F 28.4 °F 87% 29.99 in 3.0 mi ENE 8.1 mph - 0.00 in Snow Light Snow
11:52 AM 32.0 °F 24.8 °F 28.9 °F 88% 30.01 in 3.0 mi ENE 8.1 mph - 0.00 in Snow Light Snow
12:53 PM 33.1 °F 27.7 °F 28.9 °F 85% 29.98 in 7.0 mi ENE 5.8 mph - 0.00 in   Overcast
1:03 PM 33.8 °F 28.6 °F 28.4 °F 81% 29.96 in 7.0 mi ENE 5.8 mph - N/A   Overcast
1:53 PM 33.1 °F 27.7 °F 30.0 °F 89% 29.96 in 6.0 mi NNE 5.8 mph - N/A   Overcast
2:02 PM 33.8 °F 28.6 °F 28.4 °F 81% 29.94 in 5.0 mi NNE 5.8 mph - N/A   Overcast
2:37 PM 33.8 °F 29.6 °F 30.2 °F 87% 29.94 in 2.5 mi ENE 4.6 mph - 0.00 in Snow Light Snow
2:53 PM 33.1 °F 28.7 °F 30.0 °F 89% 29.95 in 2.5 mi ENE 4.6 mph - 0.00 in Snow Light Snow
3:18 PM 33.8 °F 29.6 °F 30.2 °F 87% 29.93 in 1.5 mi NE 4.6 mph - 0.01 in Snow Light Snow
3:25 PM 33.8 °F 30.8 °F 30.2 °F 87% 29.93 in 1.2 mi ENE 3.5 mph - 0.01 in Snow Light Snow
3:36 PM 33.8 °F - 30.2 °F 87% 29.93 in 2.0 mi Calm Calm - 0.01 in Snow Light Snow
3:45 PM 33.8 °F 30.8 °F 30.2 °F 87% 29.92 in 4.0 mi NE 3.5 mph - 0.01 in   Overcast
3:53 PM 34.0 °F 31.0 °F 30.9 °F 89% 29.94 in 5.0 mi ENE 3.5 mph - 0.01 in   Overcast
4:53 PM 34.0 °F - 32.0 °F 92% 29.93 in 3.0 mi Calm Calm - 0.00 in Rain Light Rain
5:23 PM 33.8 °F - 30.2 °F 87% 29.91 in 2.5 mi Calm Calm - 0.01 in Rain Light Rain
5:40 PM 33.8 °F - 30.2 °F 87% 29.90 in 3.0 mi Calm Calm - 0.01 in Rain Light Rain
5:53 PM 33.1 °F 30.0 °F 30.9 °F 92% 29.92 in 3.0 mi NE 3.5 mph - 0.01 in Rain Light Rain
6:00 PM 33.8 °F 30.8 °F 30.2 °F 87% 29.90 in 2.5 mi ENE 3.5 mph - 0.00 in Rain Light Rain
6:16 PM 33.8 °F - 30.2 °F 87% 29.90 in 3.0 mi Calm Calm - 0.00 in Rain Light Rain
6:39 PM 33.8 °F 30.8 °F 30.2 °F 87% 29.89 in 2.5 mi ENE 3.5 mph - 0.00 in Rain Light Rain
6:53 PM 34.0 °F - 32.0 °F 92% 29.92 in 3.0 mi Calm Calm - 0.00 in Rain Light Rain
7:28 PM 33.8 °F - 33.8 °F 100% 29.89 in 3.0 mi Calm Calm - 0.00 in Rain Light Rain
7:53 PM 34.0 °F - 33.1 °F 96% 29.91 in 2.5 mi Calm Calm - 0.01 in Rain Light Rain
8:24 PM 33.8 °F - 32.0 °F 93% 29.90 in 1.8 mi Calm Calm - 0.01 in Rain Light Rain
8:53 PM 33.1 °F - 33.1 °F 100% 29.92 in 1.5 mi Calm Calm - 0.01 in Rain Light Rain
9:00 PM 33.8 °F - 33.8 °F 100% 29.90 in 1.0 mi Calm Calm - 0.00 in Rain Light Rain
9:26 PM 33.8 °F - 32.0 °F 93% 29.89 in 1.8 mi Calm Calm - 0.00 in Rain Light Rain
9:46 PM 33.8 °F - 32.0 °F 93% 29.88 in 1.2 mi Calm Calm - 0.00 in Rain Light Rain
9:53 PM 33.1 °F - 32.0 °F 96% 29.89 in 0.8 mi Calm Calm - 0.00 in Rain Light Rain
10:15 PM 33.8 °F - 33.8 °F 100% 29.87 in 1.5 mi Calm Calm - 0.00 in Rain Light Rain
10:31 PM 33.8 °F - 33.8 °F 100% 29.87 in 1.0 mi Calm Calm - N/A   Mist
10:38 PM 33.8 °F - 33.8 °F 100% 29.86 in 0.5 mi Calm Calm - 0.00 in Fog Fog
10:53 PM 33.1 °F - 33.1 °F 100% 29.89 in 0.5 mi Calm Calm - 0.00 in Fog Fog
11:36 PM 33.8 °F - 33.8 °F 100% 29.87 in 0.5 mi Calm Calm - N/A Fog Fog
11:53 PM 33.1 °F - 33.1 °F 100% 29.88 in 0.5 mi Calm Calm - N/A Fog Fog